Hourly Weather Roundup
Issued by NWS Central Illinois

Home | Current Version | Previous Version | Text Only | Print | Product List | Glossary On
Versions: 1 2 3 4 5 6 7 8 9 10 11 12 13 14 15 16 17 18 19 20 21 22 23 24 25 26 27 28 29 30 31 32 33 34 35 36 37 38 39 40 41 42 43 44 45 46 47 48 49 50
000
NZUS43 KILX 080310
HWRILX

AREA WEATHER ROUNDUP
NATIONAL WEATHER SERVICE, LINCOLN IL
900 PM CST SUN FEB 07 2016


CITY           SKY/WX    TMP DP  RH WIND       PRES   REMARKS
BLOOMINGTON    CLOUDY    36  29  76 W12       29.81F WCI  28
CHAMPAIGN      CLOUDY    38  32  79 W10       29.81F WCI  31
DANVILLE       CLOUDY    39  32  77 W10       29.77F WCI  32
DECATUR        CLOUDY    41  31  67 W15       29.83S WCI  33
EFFINGHAM      CLOUDY    44  31  61 S9        29.86F
FLORA          RAIN      43  36  78 W10       29.90R
GALESBURG      CLOUDY    35  29  79 W9        29.79F WCI  28
JACKSONVILLE   CLEAR     36  32  85 SW7       29.85S WCI  31
LACON          PTCLDY    32  26  78 S3        29.79F
LAWRENCEVILLE  PTCLDY    41  31  67 MISG      29.84F
LITCHFIELD     CLOUDY    37  33  85 NW8       29.86F WCI  31
$$


CITY           SKY/WX    TMP DP  RH WIND       PRES   REMARKS
LINCOLN        CLOUDY    40  32  74 CALM      29.83F
MACOMB         CLOUDY    37  29  73 W12       29.84S WCI  29
MATTOON        CLOUDY    42  31  64 SW6       29.82F
MT CARMEL AP   MOCLDY    37  30  75 W7        29.85S WCI  32
OLNEY-NOBLE AP CLOUDY    43  32  65 W26G39    29.86S WCI  33
PARIS          CLOUDY    39  33  79 W9        29.82S WCI  33
PEORIA         PTCLDY    35  25  66 SW5       29.81F WCI  31
PONTIAC        PTCLDY    34  31  87 W8        29.79F WCI  28
RANTOUL        CLOUDY    38  34  84 W9        29.79F WCI  32
ROBINSON       PTCLDY    40  32  73 W6        29.85F
SPRINGFIELD    CLOUDY    39  31  72 CALM      29.84F
TAYLORVILLE    CLOUDY    37  32  81 W16G28    29.86S WCI  28
$$

...REGIONAL REPORTS...


CITY           SKY/WX    TMP DP  RH WIND       PRES   REMARKS
CHICAGO O`HARE PTCLDY    35  27  72 W12       29.72F WCI  27
KANKAKEE       CLOUDY    35  29  81 W6        29.79F WCI  29
MOLINE         CLEAR     35  26  69 W14       29.77F WCI  26
MOUNT STERLING MOCLDY    37  28  68 W8        29.83F WCI  31
MOUNT VERNON   CLOUDY    43  28  56 CALM      29.91S
PITTSFIELD     CLEAR     35  30  82 W8        29.87S WCI  29
QUINCY         CLOUDY    37  28  70 SW7       29.84F WCI  32
ROCKFORD       PTCLDY    34  28  79 W8        29.74F WCI  27
$$


CITY           SKY/WX    TMP DP  RH WIND       PRES   REMARKS
BURLINGTON     MOCLDY    36  28  73 W12       29.81F WCI  28
CEDAR RAPIDS   LGT SNOW  33  33 100 W15       29.75F FOG     WCI  23
DES MOINES     FLURRIES  34  29  82 NW22G28   29.85S WCI  22
KIRKSVILLE     FLURRIES  34  30  85 W16G23    29.88F WCI  24
OTTUMWA        CLOUDY    34  31  88 W13       29.82F WCI  25
ST LOUIS       PTCLDY    39  30  70 W5        29.89F
$$


CITY           SKY/WX    TMP DP  RH WIND       PRES   REMARKS
TERRE HAUTE    PTCLDY    41  31  67 W8        29.83F
EVANSVILLE     CLOUDY    49  31  49 W6        29.86S
INDIANAPOLIS   PTCLDY    37  30  75 W8        29.79F WCI  31
LAFAYETTE      PTCLDY    38  31  76 W7        29.78F WCI  33
MADISON        MOCLDY    33  27  78 VRB6      29.66F WCI  28
MILWAUKEE      PTCLDY    36  26  67 W10       29.67F WCI  28
$$





USA.gov is the U.S. government's official web portal to all federal, state and local government web resources and services.